Regional Weather Roundup
Issued by NWS

Home | Current Version | Previous Version | Text Only | Print | Product List | Glossary Off
Versions: 1 2 3 4 5 6 7 8 9 10 11 12 13 14 15 16 17 18 19 20 21 22 23 24 25 26 27 28 29 30 31 32 33 34 35 36 37 38 39 40 41 42 43 44 45 46 47 48 49 50

000
ASUS43 KMPX 090010
RWRMN
WEATHER ROUNDUP FOR MINNESOTA
NATIONAL WEATHER SERVICE TWIN CITIES/CHANHASSEN MN
600 PM CST THU DEC 08 2016


NOTE: "FAIR" INDICATES FEW OR NO CLOUDS BELOW 12,000 FEET WITH NO
SIGNIFICANT WEATHER AND/OR OBSTRUCTIONS TO VISIBILITY. N/A MEANS
CURRENT SKY AND/OR WEATHER CONDITIONS ARE NOT AVAILABLE.

MNZ060>063-068>070-090100-
   Twin Cities Metro

CITY           SKY/WX    TMP DP  RH WIND       PRES   REMARKS
TWIN CITIES    FLURRIES  21  11  65 NW13      30.47R WCI   9
6HR MIN TEMP:  21; 6HR MAX TEMP:  24; 6HR PCP: TRACE;

ST PAUL        CLOUDY    22  13  68 NW14      30.48R WCI   9
CRYSTAL        CLOUDY    21   9  59 NW13      30.46R WCI   9
BLAINE         FLURRIES  21  16  79 W14       30.45R WCI   8
LAKEVILLE      LGT SNOW  19  16  86 NW8       30.46R WCI   9
EDEN PRAIRIE   FLURRIES  21  12  68 NW8G20    30.46R WCI  11
6HR MIN TEMP:  21; 6HR MAX TEMP:  25; 6HR PCP: TRACE;

SOUTH ST PAUL  CLOUDY    22  12  64 NW12      30.46S WCI  11
LAKE ELMO      FLURRIES  23  16  74 W14       30.45R WCI  11
$$
MNZ001>005-007-008-013>017-022>024-027-028-090100-
   Northwest Minnesota

CITY           SKY/WX    TMP DP  RH WIND       PRES   REMARKS
BEMIDJI        FLURRIES  14  10  86 W10       30.45S WCI   1
HALLOCK        CLEAR      9   3  78 N13       30.58R WCI  -7
ROSEAU         CLOUDY    12   7  79 NW10      30.51S WCI  -1
WARROAD        CLOUDY    12   9  85 NW14      30.50R WCI  -3
THIEF RVR FALL FLURRIES  11   8  88 NW12      30.53S WCI  -3
CROOKSTON      CLOUDY    12   9  85 NW14      30.57S WCI  -3
FOSSTON        FLURRIES   9   7  92 W9        30.51S WCI  -5
DETROIT LAKES  LGT SNOW  12  10  92 NW12      30.51S WCI  -2
MOORHEAD       MIX PCPN  12   9  85 NW12      30.58S WCI  -2
PARK RAPIDS    MOCLDY    10   4  76 NW8       30.45S WCI  -2
$$
MNZ006-009>011-018-025>026-090100-
   North Central Minnesota

CITY           SKY/WX    TMP DP  RH WIND       PRES   REMARKS
BAUDETTE       FLURRIES  16   8  71 NW12      30.44R WCI   3
FLAG ISLAND    FLURRIES  14   9  79 NW17      30.47R WCI  -3
INTL FALLS     CLOUDY    15   8  73 NW10      30.42R WCI   2
6HR MIN TEMP:  15; 6HR MAX TEMP:  21; 6HR PCP: TRACE;

WASKISH        CLOUDY    16  10  79 NW9       30.46S WCI   4
BIG FORK       PTCLDY    14   9  79 CALM      30.42R
LONGVILLE      CLOUDY    18  10  73 NW7       30.44R WCI   8
GRAND RAPIDS   FLURRIES  17  11  77 NW13G23   30.42R WCI   4
CRANE LAKE     CLOUDY    16  10  79 N7        30.40R WCI   6
ORR            CLOUDY    16  10  79 NW13      30.35S WCI   2
COOK           CLOUDY    16  12  86 NW5       30.37S WCI   9
$$
MNZ012-019>021-037-090100-
   Northeast Minnesota

CITY           SKY/WX    TMP DP  RH WIND       PRES   REMARKS
DULUTH         PTCLDY    20  11  68 NW14G22   30.33R WCI   7
6HR MIN TEMP:  20; 6HR MAX TEMP:  23;

ELY            CLEAR     16  10  79 NW9G16    30.34R WCI   4
HIBBING        CLOUDY    17   9  70 NW17      30.37R WCI   1
EVELETH        MIX PCPN  20  13  73 NW12      30.36S WCI   8
DULUTH HARBOR  CLOUDY    25  16  68 NW15G21   30.40R WCI  12
TWO HARBORS    MOCLDY    25  18  74 NW7       30.33R WCI  17
SILVER BAY     CLOUDY    19  12  73 NW5       30.32R WCI  13
GRAND MARAIS     N/A     20  10  65 VRB3      30.34R
G MARAIS ARPRT FLURRIES  10   5  79 NW13G18   30.23S WCI  -5
$$
MNZ029>031-032-039>041-046>048-054>057-064-090100-
   West Central Minnesota

CITY           SKY/WX    TMP DP  RH WIND       PRES   REMARKS
FERGUS FALLS   LGT SNOW  10   7  85 NW16      30.60R WCI  -7
WHEATON        PTCLDY    10   7  85 W13       30.61R WCI  -5
MORRIS         FLURRIES  10   7  85 NW17      30.54R WCI  -7
ALEXANDRIA     CLOUDY    12   8  84 NW15      30.50R WCI  -4
ELBOW LAKE     LGT SNOW  11   8  88 NW18      30.55R WCI  -7
WADENA         PTCLDY    10   7  85 W9        30.48R WCI  -2
GLENWOOD       FLURRIES  10   9  92 W15       30.50S WCI  -6
APPLETON       CLOUDY    12   9  85 NW13G18   30.57R WCI  -3
BENSON         FLURRIES  10   7  85 N14       30.54S WCI  -5
ORTONVILLE     MOCLDY    10   3  72 NW14G25   30.57S WCI  -5
MADISON        PTCLDY    16   9  73 NW14      30.58R WCI   1
WILLMAR        FLURRIES  14  10  85 NW12      30.53S WCI   0
$$
MNZ033>034-036-042>043-049>051-058-059-090100-
   Central Minnesota

CITY           SKY/WX    TMP DP  RH WIND       PRES   REMARKS
ST CLOUD       CLOUDY    18  11  74 NW12      30.47R WCI   5
6HR MIN TEMP:  18; 6HR MAX TEMP:  21; 6HR PCP: TRACE;

PAYNESVILLE    LGT SNOW  15  11  87 W10       30.50S WCI   2
AITKIN         MIX PCPN  21  12  68 W5        30.41S WCI  15
PINE RIVER     LGT SNOW  18  14  86 W5        30.47R WCI  11
BRAINERD       CLOUDY    19  12  74 NW13      30.44R WCI   6
STAPLES        FLURRIES  10   9  92 NW12      30.47S WCI  -4
LONG PRAIRIE   FAIR      14   9  79 W8        30.48R WCI   3
LITTLE FALLS   CLOUDY    18  10  73 NW7       30.47R WCI   8
LITCHFIELD     MIX PCPN  16  10  79 NW14      30.49S WCI   1
BUFFALO        FLURRIES  20  11  69 NW8       30.49R WCI  10
MAPLE LAKE     FLURRIES  20  13  75 NW10G17   30.49R WCI   9
HUTCHINSON     CLOUDY    17  11  80 W13       30.50S WCI   3
$$
MNZ037-044-045-052-053-090100-
   East Central Minnesota

CITY           SKY/WX    TMP DP  RH WIND       PRES   REMARKS
PRINCETON      CLOUDY    21  14  73 W9        30.45R WCI  11
MORA           CLOUDY    21  12  68 NW8       30.44S WCI  12
CAMBRIDGE      FLURRIES  23  12  63 W9        30.43R WCI  13
RUSH CITY      CLOUDY    23  14  68 NW5       30.43S WCI  17
MOOSE LAKE     CLEAR     19  14  79 NW6       30.38R WCI  11
HINCKLEY       MOCLDY    23  14  68 W6        30.41S WCI  16
CLOQUET        CLEAR     19   9  63 W8        30.36R WCI   9
MCGREGOR       CLEAR     21  14  73 NW9       30.41R WCI  11
$$
MNZ071>073-080-081-089-090-097-098-090100-
   Southwest Minnesota

CITY           SKY/WX    TMP DP  RH WIND       PRES   REMARKS
MONTEVIDEO     MOCLDY    12   7  79 N9        30.58R WCI   0
GRANITE FALLS  CLEAR     14  10  83 NW14      30.57S WCI  -1
CANBY          CLEAR     14   8  78 W14G20    30.58S WCI  -1
MARSHALL       CLEAR     13   8  81 NW13      30.56R WCI  -2
REDWOOD FALLS  PTCLDY    14   7  73 NW13      30.54R WCI   0
OLIVIA         FLURRIES  16  10  79 NW10G16   30.53R WCI   3
PIPESTONE      CLEAR     12   7  79 NW12      30.54R WCI  -2
WINDOM         CLEAR     16   9  73 NW15G22   30.51S WCI   1
WORTHINGTON    CLEAR     13   8  81 NW13      30.53R WCI  -2
JACKSON        CLOUDY    14   9  79 NW14      30.51S WCI  -1
TRACY          PTCLDY    15  10  82 NW14      30.54R WCI   0
SLAYTON        CLEAR     13   8  81 NW14G22   30.53R WCI  -2
$$
MNZ065>067-074>077-082>085-091>093-090100-
   South Central Minnesota

CITY           SKY/WX    TMP DP  RH WIND       PRES   REMARKS
MANKATO        FLURRIES  16  10  77 NW18      30.50R WCI   0
NEW ULM        FLURRIES  14   9  79 NW17      30.52R WCI  -3
ST JAMES       PTCLDY    16  10  79 W15G22    30.54R WCI   1
FAIRMONT       PTCLDY    16  10  79 NW18      30.52  WCI  -1
GLENCOE        CLOUDY    19  14  81 W15       30.49R WCI   5
FARIBAULT      FLURRIES  19  12  73 W16       30.46R WCI   5
OWATONNA       FLURRIES  18  12  79 W13G18    30.46R WCI   4
WASECA         FLURRIES  18  12  79 W15       30.49S WCI   3
ALBERT LEA     FLURRIES  19  12  73 NW14G21   30.47S WCI   6
$$
MNZ078>079-086>088-094>096-090100-
   Southeast Minnesota

CITY           SKY/WX    TMP DP  RH WIND       PRES   REMARKS
ROCHESTER      FLURRIES  19  15  84 NW15      30.42R WCI   5
6HR MIN TEMP:  19; 6HR MAX TEMP:  21; 6HR PCP: TRACE;

RED WING       FLURRIES  23  12  63 NW10      30.43S WCI  12
STANTON        LGT SNOW  22  17  83 NW9       30.45R WCI  11
DODGE CENTER   FLURRIES  18  12  79 NW15      30.42S WCI   3
WINONA         CLOUDY    25  18  74 W8        30.43R WCI  16
AUSTIN         FLURRIES  18  12  79 W16       30.45S WCI   3
PRESTON        FLURRIES  19  14  82 NW16      30.41S WCI   4
$$
ABBREVIATIONS USED IN REMARKS
   TC - TEMPERATURES IN CELSIUS
  WCI - WIND CHILL INDEX
   HX - HEAT INDEX
  VSB - VISIBILITY
$$



USA.gov is the U.S. government's official web portal to all federal, state and local government web resources and services.